Location: Maccacari
(45.1333°N, 11.1333°E)
Time: 02:56:59
(UTC+00:00)

Altair - Pass Details

Date: 31 January 2021
Orbit: 1501 x 1682 km, 47.2° (Epoch: 01 March)

Event Time Altitude Azimuth Distance (km) Brightness Sun altitude
Rises 06:13:28 0° 280° (W) 4,895 - -4.6°
Exits shadow 06:14:52 - 281° (W) 4,462 9.3 -4.4°
Reaches altitude 10° 06:16:36 10° 282° (WNW) 3,922 9.0 -4.1°
Maximum altitude 06:26:48 84° 11° (NNE) 1,695 7.8 -2.4°
Drops below altitude 10° 06:37:00 10° 101° (E) 3,929 11.5 -0.8°
Sets 06:40:08 0° 102° (ESE) 4,904 12.3 -0.3°
